EW1479 Weather Reports


time (UTC)temp
C
wind
direction
speed
KPH
gust
KPH
rain 1hr
cm
rain 24hr
cm
rain mn
cm
humidity
%
barometer
mb
20260906213315 20 51 4.8 11.3 0.00 0.00 0.00 73 1024.0
20260906211820 20 63 8.0 14.5 0.00 0.00 0.00 70 1024.0
20260906210317 21 26 4.8 12.9 0.00 0.00 0.00 70 1024.0
20260906204829 20 43 8.0 17.7 0.00 0.00 0.00 68 1023.8
20260906203316 21 29 4.8 12.9 0.00 0.00 0.00 71 1023.7
20260906201830 21 329 8.0 16.1 0.00 0.00 0.00 70 1023.7
20260906200319 20 334 4.8 14.5 0.00 0.00 0.00 74 1023.7
20260906194830 21 70 6.4 19.3 0.00 0.00 0.00 74 1023.6
20260906193339 21 338 4.8 12.9 0.00 0.00 0.00 73 1023.7
20260906191830 21 29 11.3 16.1 0.00 0.00 0.00 70 1023.6
20260906190325 21 308 6.4 20.9 0.00 0.00 0.00 69 1023.5
20260906184817 21 53 11.3 14.5 0.00 0.00 0.00 69 1023.5
20260906183331 21 65 4.8 12.9 0.00 0.00 0.00 70 1023.5
20260906181839 21 358 9.7 14.5 0.00 0.00 0.00 72 1023.7
20260906180352 20 56 8.0 16.1 0.00 0.00 0.00 77 1023.6
20260906174821 21 56 8.0 14.5 0.00 0.00 0.00 73 1023.6
20260906173316 20 62 6.4 12.9 0.00 0.00 0.00 76 1023.6
20260906171829 20 39 8.0 14.5 0.00 0.00 0.00 73 1023.7
20260906170318 20 24 8.0 12.9 0.00 0.00 0.00 75 1023.7
20260906164828 20 310 4.8 9.7 0.00 0.00 0.00 77 1023.7
20260906163322 20 33 9.7 14.5 0.00 0.00 0.00 76 1023.7
20260906161815 20 33 6.4 14.5 0.00 0.00 0.00 79 1023.7
20260906160330 20 73 6.4 14.5 0.00 0.00 0.00 79 1023.7
20260906154814 20 71 4.8 12.9 0.00 0.00 0.00 81 1023.6
20260906153331 20 74 8.0 14.5 0.00 0.00 0.00 81 1023.6
20260906151819 20 58 8.0 14.5 0.00 0.00 0.00 83 1023.5
20260906150328 19 64 4.8 9.7 0.00 0.00 0.00 86 1023.5
20260906144816 19 19 9.7 17.7 0.00 0.00 0.00 87 1023.5
20260906143318 19 354 6.4 12.9 0.00 0.00 0.00 87 1023.3
20260906141852 19 56 8.0 11.3 0.00 0.00 0.00 89 1023.4
20260906140319 18 65 3.2 12.9 0.00 0.00 0.00 90 1023.4
20260906134828 18 47 8.0 14.5 0.00 0.00 0.00 90 1023.2
20260906133319 18 46 4.8 14.5 0.00 0.00 0.00 90 1023.0
20260906131831 18 47 8.0 19.3 0.00 0.00 0.00 84 1023.0
20260906130320 17 48 6.4 14.5 0.00 0.00 0.00 58 1023.0
20260906124815 17 30 1.6 6.4 0.00 0.00 0.00 52 1022.9
20260906123323 17 47 0.0 0.0 0.00 0.00 0.00 51 1022.9
20260906121817 16 101 0.0 0.0 0.00 0.00 0.00 51 1022.8
20260906120328 16 60 0.0 0.0 0.00 0.00 0.00 54 1022.7
20260906114822 15 60 0.0 0.0 0.00 0.00 0.00 59 1022.4
20260906113341 14 60 0.0 0.0 0.00 0.00 0.00 56 1022.3
20260906111853 13 60 0.0 0.0 0.00 0.00 0.00 55 1022.1
20260906110322 13 60 0.0 0.0 0.00 0.00 0.00 56 1022.0
20260906104836 13 60 0.0 0.0 0.00 0.00 0.00 57 1021.9
20260906103347 13 60 0.0 0.0 0.00 0.00 0.00 56 1021.7
20260906101840 13 60 0.0 0.0 0.00 0.00 0.00 56 1021.8
20260906100334 13 60 0.0 0.0 0.00 0.00 0.00 56 1021.6
20260906094823 14 60 0.0 0.0 0.00 0.00 0.00 55 1021.4
20260906093323 14 39 0.0 0.0 0.00 0.00 0.00 55 1021.4
20260906091811 14 46 0.0 0.0 0.00 0.00 0.00 57 1021.2
20260906090326 14 47 0.0 1.6 0.00 0.00 0.00 56 1021.1
20260906084813 14 46 0.0 0.0 0.00 0.00 0.00 58 1020.8
20260906083327 15 47 0.0 0.0 0.00 0.00 0.00 56 1020.6
20260906081816 15 46 0.0 0.0 0.00 0.00 0.00 57 1020.6
20260906080331 15 46 0.0 0.0 0.00 0.00 0.00 56 1020.6
20260906074818 15 46 0.0 0.0 0.00 0.00 0.00 55 1020.6
20260906073315 15 46 0.0 0.0 0.00 0.00 0.00 56 1020.5
20260906071813 15 47 0.0 1.6 0.00 0.00 0.00 56 1020.5
20260906070330 15 13 1.6 1.6 0.00 0.00 0.00 57 1020.5
20260906064819 15 13 0.0 0.0 0.00 0.00 0.00 58 1020.6
20260906063316 15 13 0.0 0.0 0.00 0.00 0.00 59 1020.6
20260906061831 15 13 0.0 1.6 0.00 0.00 0.00 60 1020.6
20260906060320 16 13 0.0 3.2 0.00 0.00 0.00 57 1020.7
20260906054835 16 71 0.0 0.0 0.00 0.00 0.00 56 1020.7
20260906053327 15 71 0.0 0.0 0.00 0.00 0.00 57 1020.7
20260906051811 15 71 0.0 0.0 0.00 0.00 0.00 57 1020.7
20260906050326 15 71 0.0 0.0 0.00 0.00 0.00 58 1020.8
20260906044822 15 71 0.0 0.0 0.00 0.00 0.00 59 1020.8
20260906043328 15 71 0.0 0.0 0.00 0.00 0.00 60 1020.6
20260906041820 15 71 0.0 0.0 0.00 0.00 0.00 62 1020.6
20260906040331 15 70 0.0 0.0 0.00 0.00 0.00 64 1020.4
20260906034829 15 70 0.0 0.0 0.00 0.00 0.00 65 1020.4
20260906033329 15 70 0.0 0.0 0.00 0.00 0.00 66 1020.3
20260906031844 15 71 0.0 1.6 0.00 0.00 0.00 68 1020.2
20260906030316 15 70 0.0 1.6 0.00 0.00 0.00 70 1020.2
20260906024811 15 70 0.0 1.6 0.00 0.00 0.00 70 1020.1
20260906023346 15 71 0.0 0.0 0.00 0.00 0.00 71 1020.1
20260906021811 15 70 0.0 0.0 0.00 0.00 0.00 74 1020.0
20260906020348 15 70 0.0 0.0 0.00 0.00 0.00 75 1020.0
20260906014812 15 70 0.0 0.0 0.00 0.00 0.00 78 1019.9
20260906013329 15 70 1.6 1.6 0.00 0.00 0.00 78 1019.8
20260906011823 16 71 1.6 1.6 0.00 0.00 0.00 81 1019.8
20260906010317 16 70 0.0 1.6 0.00 0.00 0.00 84 1019.7
20260906004831 16 70 0.0 0.0 0.00 0.00 0.00 87 1019.7
20260906003323 16 71 0.0 0.0 0.00 0.00 0.00 89 1019.6
20260906001833 17 70 0.0 1.6 0.00 0.00 0.00 89 1019.5
20260906000328 18 70 0.0 1.6 0.00 0.00 0.00 87 1019.6
20260905234833 18 65 3.2 6.4 0.00 0.00 0.00 85 1019.6
20260905233326 20 67 1.6 3.2 0.00 0.00 0.00 81 1019.6
20260905231814 21 61 3.2 4.8 0.00 0.00 0.00 76 1019.5
20260905230349 22 307 1.6 4.8 0.00 0.00 0.00 71 1019.4
20260905224821 22 348 0.0 6.4 0.00 0.00 0.00 69 1019.4
20260905223317 22 339 3.2 8.0 0.00 0.00 0.00 67 1019.4
20260905221829 22 326 4.8 12.9 0.00 0.00 0.00 66 1019.3
20260905220318 23 321 1.6 9.7 0.00 0.00 0.00 65 1019.2
20260905214811 23 33 3.2 8.0 0.00 0.00 0.00 66 1019.0